Vorticity
9 8 8 8 8 8 8 8 9 9 9 9 8 7 7 7 7 7 6 7 7 7 7 7 7 7 7 7 7 8 8 9 10 11 12 12 12 11 11 10 10 10 11 12 13 13 13 13 12 12 12 13 15 16 18 18 15 13 12 11 8 5 1 -3 -5 -5 -3 1 6
9 8 8 8 8 8 8 8 9 9 9 9 8 8 7 7 7 6 6 7 7 7 7 7 7 7 7 8 8 8 8 9 10 11 11 12 12 11 11 10 10 10 11 12 13 14 14 14 13 12 12 12 13 15 16 17 16 14 12 11 7 3 -1 -4 -4 -1 4 10 13
8 8 8 8 8 8 9 9 9 9 9 9 8 8 7 7 7 7 7 7 7 7 7 7 8 8 8 7 8 8 9 9 9 10 11 12 12 12 11 10 10 10 11 12 13 14 14 14 14 13 12 12 12 14 15 15 16 16 14 12 9 5 2 1 4 10 14 17 16
8 8 8 8 9 9 9 9 9 9 9 8 8 8 8 7 7 7 7 7 7 7 7 7 8 8 8 8 8 8 9 9 10 10 11 12 12 12 11 10 10 10 11 12 13 14 15 15 15 14 13 12 12 13 14 14 16 16 16 16 14 12 11 12 16 18 18 16 11
9 9 9 8 8 9 9 9 9 9 8 8 8 7 7 7 7 7 7 7 7 8 8 8 8 8 8 8 8 8 9 9 10 10 11 11 12 12 11 11 10 10 10 11 13 14 16 16 16 15 14 13 13 13 13 14 15 16 17 18 18 18 19 20 20 18 13 8 2
8 8 9 9 8 8 9 9 9 9 8 8 8 7 7 7 7 7 7 7 8 8 8 8 8 8 8 9 9 9 9 9 10 10 11 11 11 11 11 11 10 10 10 11 13 14 16 16 17 17 16 14 13 13 13 13 13 14 15 16 18 18 18 18 15 11 7 4 -2
8 8 8 8 8 8 8 9 9 8 8 8 8 8 7 7 7 7 7 7 8 8 8 8 8 9 9 9 9 9 9 9 10 10 11 11 11 11 11 11 10 10 10 11 12 14 16 17 17 17 17 16 14 13 13 12 11 12 12 13 14 14 13 12 8 4 1 1 -4
9 8 8 8 8 8 9 8 8 8 8 8 8 8 7 7 7 7 7 8 8 8 8 8 9 9 9 9 9 9 9 9 10 10 11 11 11 11 11 11 10 10 10 11 12 13 15 17 17 18 17 17 16 15 13 12 10 10 9 9 8 8 8 8 5 2 0 -1 -3
9 9 8 8 9 9 9 9 9 8 8 8 8 8 7 7 7 7 8 8 8 8 8 9 9 9 9 9 9 9 9 9 10 10 10 11 11 11 11 11 11 10 10 11 12 13 15 16 18 18 18 18 17 16 15 13 11 9 7 5 3 4 6 7 4 2 2 3 3
9 8 8 9 9 9 9 9 9 9 8 8 8 7 7 7 7 8 8 8 8 9 9 9 9 9 9 9 9 9 9 9 10 10 10 11 11 11 11 11 11 11 10 11 12 13 14 16 17 18 19 19 18 17 16 15 12 8 4 1 -1 1 4 6 4 4 4 7 8
9 9 9 9 8 8 8 9 9 9 8 8 7 7 7 7 7 8 8 8 8 9 9 9 9 9 10 9 9 9 9 9 10 10 10 10 11 11 11 12 11 11 10 10 11 13 14 15 16 18 19 20 19 18 17 16 13 7 1 -4 -3 -0 2 5 4 4 6 10 9
9 9 9 9 8 8 9 9 9 8 8 8 7 7 7 7 8 8 8 8 9 9 9 9 9 10 10 9 9 9 9 9 10 10 10 10 10 11 12 12 12 11 11 10 11 12 13 15 16 17 18 20 20 20 19 18 15 8 0 -6 -5 -2 1 4 3 4 6 11 8
9 9 9 9 8 8 9 9 9 8 8 8 7 7 7 7 8 8 8 9 9 9 9 10 10 10 10 9 9 9 9 10 10 10 10 10 10 11 12 12 12 12 11 10 11 12 13 15 15 16 17 18 20 20 20 20 18 12 3 -6 -6 -3 1 5 4 4 7 11 7
9 9 9 8 8 9 9 9 9 8 8 7 7 7 7 7 8 8 8 9 9 9 9 10 10 10 10 9 9 9 9 10 10 10 10 10 10 11 12 13 13 12 11 10 11 12 13 14 15 15 16 16 18 19 20 22 21 17 9 -0 -5 -3 2 9 8 8 10 12 7
10 9 9 9 9 9 9 9 9 8 8 7 7 7 7 8 8 8 8 9 9 9 9 10 10 10 10 9 9 9 9 10 10 9 9 10 10 11 12 13 13 12 12 11 11 12 13 14 15 15 15 16 16 18 20 22 23 21 16 7 0 0 5 13 15 15 15 13 6
10 10 9 9 9 9 9 9 8 8 8 7 7 7 7 8 8 8 8 9 9 9 10 10 10 10 10 10 9 9 9 10 10 9 9 9 10 11 12 13 13 13 12 11 11 12 13 15 15 15 16 16 16 17 18 21 23 23 20 13 7 6 10 19 22 22 19 14 7
10 10 9 9 9 9 9 9 8 8 8 7 7 7 7 8 8 8 8 9 9 9 10 10 10 10 9 9 9 9 9 10 10 9 9 9 10 11 13 14 14 13 12 11 11 11 13 15 16 16 16 16 15 16 17 20 22 22 20 16 13 13 16 25 29 28 23 16 11
10 10 10 10 9 9 9 9 8 8 8 7 7 7 7 8 8 8 8 9 9 9 10 10 10 10 9 9 9 9 9 9 10 9 9 9 10 11 13 14 14 14 13 12 11 11 13 14 15 16 15 15 14 14 15 17 20 20 18 16 17 17 20 27 30 28 23 17 13
10 10 10 10 9 9 9 9 9 8 8 7 7 7 7 8 8 8 8 9 9 9 10 10 10 10 10 9 9 9 9 10 9 9 9 9 10 11 13 14 14 14 13 12 11 11 12 14 14 14 14 14 13 12 12 14 16 15 13 12 15 16 18 21 22 19 15 12 10
10 10 10 10 9 9 9 9 9 8 8 7 7 7 7 8 8 8 8 8 9 9 10 10 10 10 9 9 9 9 9 9 9 9 9 9 10 11 13 14 15 14 13 13 11 11 11 13 12 12 11 11 12 11 10 10 11 8 5 3 6 7 8 9 10 9 7 5 6
11 11 10 10 9 9 9 9 9 8 8 7 7 7 7 7 8 8 8 8 9 9 9 10 10 9 9 9 9 9 9 9 9 9 9 9 10 12 13 14 15 14 14 13 12 11 11 11 10 8 7 8 12 13 12 9 6 3 -0 -3 -6 -7 -7 -3 2 4 4 3 5
11 11 10 10 9 9 9 9 9 8 8 7 7 7 7 8 8 8 8 8 8 9 9 10 10 10 9 9 9 9 9 9 9 9 8 8 10 11 13 14 15 14 14 13 12 11 10 10 7 4 3 6 13 16 15 10 5 1 -1 -3 -10 -15 -17 -13 -3 2 5 4 7
11 10 10 10 9 9 9 9 9 8 8 7 7 7 7 8 8 8 8 8 8 9 9 9 10 10 10 9 9 8 8 8 9 9 9 8 9 11 13 15 14 14 14 13 12 11 10 8 5 3 3 6 12 15 14 10 6 3 2 -0 -4 -8 -10 -9 -1 4 7 8 12
11 10 10 10 9 9 9 9 9 8 8 7 7 7 7 7 7 8 8 8 8 9 9 9 9 9 9 9 9 8 8 8 8 8 8 8 9 11 13 15 15 15 14 13 13 11 10 8 5 3 4 5 7 10 11 8 5 7 10 9 9 8 7 6 8 10 11 12 16
11 10 10 10 9 9 9 10 9 9 8 7 7 7 7 7 7 8 8 8 8 8 9 9 9 9 9 9 9 8 8 8 8 8 8 8 9 11 13 14 15 15 14 13 12 12 11 9 6 5 4 5 4 5 7 7 5 6 9 13 14 14 14 15 18 17 15 16 18
11 10 10 10 9 9 10 10 9 8 7 7 7 7 7 7 7 8 8 8 8 8 8 8 9 9 9 8 8 8 8 8 8 8 8 8 9 10 12 14 15 14 14 13 12 11 11 10 7 6 6 7 2 2 4 4 3 4 5 5 3 5 11 21 24 21 16 15 16
11 11 10 9 9 9 10 10 9 8 8 7 7 7 7 7 7 8 8 7 7 7 8 8 9 8 8 8 8 8 8 7 8 8 8 8 9 10 12 14 14 14 14 13 11 11 10 10 8 7 8 10 4 2 3 6 5 4 3 -0 1 9 19 29 28 22 15 11 11
11 11 10 9 9 9 9 9 9 9 8 7 7 6 6 7 7 8 7 7 7 7 8 8 8 8 8 8 8 8 8 7 8 8 8 9 9 10 11 13 14 14 14 13 11 10 10 9 8 7 8 11 9 6 5 9 8 6 4 3 10 19 27 32 28 23 16 12 10
11 11 10 10 9 9 9 10 10 9 8 7 6 6 7 7 7 7 7 7 7 7 7 8 7 7 8 8 8 8 8 8 8 8 8 9 9 10 10 12 13 14 14 13 11 10 10 9 8 7 7 10 11 11 10 11 9 8 9 12 20 26 31 32 30 26 24 22 20
11 11 11 10 9 9 9 10 9 8 7 7 6 6 7 7 7 7 7 7 7 7 7 7 7 7 7 7 8 8 8 8 8 8 8 9 10 10 10 11 13 14 15 14 12 11 10 9 8 8 7 8 7 7 9 11 11 13 15 19 24 28 31 31 30 30 29 30 27
11 11 11 10 10 10 10 10 9 8 7 7 6 6 6 7 7 7 7 7 6 6 6 7 7 7 7 7 7 8 8 8 8 8 8 9 10 10 10 10 12 14 15 15 13 11 10 9 8 8 8 10 9 9 10 13 14 16 18 21 24 26 26 26 26 27 28 28 23
11 10 10 10 10 10 9 9 9 9 8 7 7 6 7 7 7 7 7 7 6 6 6 7 7 7 7 7 7 7 8 8 8 8 9 9 10 10 9 9 11 13 15 15 14 13 10 8 7 8 9 9 11 12 14 15 15 16 18 22 23 22 21 19 20 21 21 20 16
10 10 10 10 10 10 9 9 9 9 8 7 7 6 6 7 7 7 7 6 6 6 6 7 7 7 7 6 7 7 8 8 8 8 8 9 10 10 9 9 10 13 15 16 15 13 11 9 8 9 9 8 11 13 14 14 14 16 19 22 22 20 17 15 15 16 16 16 13
10 10 10 10 10 10 9 10 9 9 8 7 7 6 6 6 7 7 7 6 6 6 7 7 7 7 7 6 6 7 7 8 8 8 8 9 10 10 10 9 10 12 14 16 15 13 11 9 9 11 11 8 12 13 13 13 14 16 19 22 20 18 15 13 13 13 14 14 13
10 10 10 10 10 10 10 10 9 9 8 7 7 6 6 6 7 7 7 6 6 6 7 7 7 7 7 6 6 6 7 8 8 8 8 9 9 10 10 9 9 11 14 16 15 13 10 8 11 13 13 10 12 13 13 12 13 15 18 20 19 17 14 12 12 12 13 13 12
11 10 10 10 10 10 10 10 10 9 9 8 7 6 6 6 7 7 6 6 6 6 7 7 7 7 7 6 6 6 7 7 8 8 8 8 9 10 10 9 9 11 13 16 15 13 10 7 11 12 10 7 11 12 12 11 12 13 15 17 17 16 14 12 12 12 12 12 11
11 10 9 10 10 10 10 10 10 9 9 8 7 6 6 6 6 6 6 6 6 6 7 7 7 7 7 7 6 6 7 7 7 8 8 8 9 9 10 10 9 10 12 16 15 13 10 6 10 11 9 7 11 12 12 10 10 10 12 14 16 16 14 13 12 12 11 11 10
11 9 9 10 10 10 10 10 10 10 9 8 7 6 6 6 6 6 6 6 6 6 7 7 7 7 7 7 7 6 6 7 7 7 8 8 9 9 10 10 10 10 12 15 14 13 10 6 9 11 11 9 11 12 11 10 9 8 9 11 13 15 15 14 13 12 11 11 10
11 9 9 10 10 11 11 11 11 10 10 9 7 6 6 6 6 6 6 6 6 6 7 7 7 7 7 7 7 7 6 6 7 7 8 8 8 9 10 10 10 10 11 14 14 13 12 9 8 10 12 11 12 12 11 9 9 8 7 8 11 13 15 15 14 13 13 12 11
10 8 8 10 11 11 11 11 11 10 10 9 8 7 6 6 6 6 6 6 6 6 7 7 7 7 7 7 7 7 7 6 6 7 8 8 8 9 10 10 10 10 10 12 14 14 13 11 8 9 11 12 13 13 12 9 9 8 6 6 8 11 13 15 15 14 14 13 12
10 8 7 9 11 12 12 11 11 10 10 9 8 7 6 5 5 5 5 6 6 6 7 7 7 7 7 7 7 7 7 6 6 7 7 8 8 9 10 11 10 10 10 11 13 14 14 13 9 9 10 11 13 13 12 9 9 8 7 6 6 8 11 14 14 15 15 14 13
Height
3071 3069 3067 3066 3064 3062 3060 3058 3056 3054 3052 3051 3049 3047 3045 3043 3041 3039 3037 3034 3032 3030 3027 3025 3022 3020 3017 3014 3012 3009 3006 3004 3001 2998 2995 2993 2990 2987 2984 2982 2979 2977 2974 2972 2969 2967 2964 2961 2959 2957 2954 2953 2951 2949 2947 2946 2944 2943 2941 2940 2939 2938 2936 2935 2933 2932 2930 2928 2926
3069 3067 3066 3064 3062 3060 3059 3057 3055 3053 3051 3049 3047 3045 3043 3041 3039 3037 3035 3033 3030 3028 3026 3023 3021 3018 3015 3013 3010 3007 3005 3002 2999 2997 2994 2991 2989 2986 2983 2981 2978 2976 2973 2970 2968 2965 2963 2960 2958 2955 2953 2951 2949 2948 2946 2944 2943 2941 2940 2939 2938 2936 2935 2934 2932 2930 2929 2927 2925
3067 3065 3064 3062 3060 3059 3057 3055 3053 3051 3049 3047 3045 3044 3042 3040 3038 3036 3034 3031 3029 3026 3024 3022 3019 3016 3014 3011 3009 3006 3003 3000 2998 2995 2993 2990 2987 2985 2982 2979 2977 2974 2972 2969 2967 2964 2961 2959 2957 2954 2952 2950 2948 2946 2945 2943 2942 2940 2939 2937 2936 2935 2934 2932 2930 2929 2927 2925 2924
3065 3064 3062 3060 3059 3057 3055 3053 3051 3049 3048 3046 3044 3042 3040 3038 3036 3034 3032 3030 3027 3025 3022 3020 3018 3015 3013 3010 3007 3004 3002 2999 2996 2994 2991 2989 2986 2984 2981 2978 2976 2973 2971 2968 2965 2963 2960 2958 2955 2953 2951 2949 2947 2945 2944 2942 2940 2939 2938 2936 2935 2934 2932 2931 2929 2928 2926 2924 2922
3064 3062 3060 3059 3057 3055 3054 3052 3050 3048 3046 3044 3042 3040 3038 3036 3034 3032 3030 3028 3026 3023 3021 3019 3016 3014 3011 3009 3006 3003 3000 2998 2995 2992 2990 2987 2985 2982 2979 2977 2974 2972 2969 2967 2964 2962 2959 2957 2954 2952 2950 2948 2946 2944 2942 2941 2939 2938 2936 2935 2934 2932 2931 2929 2928 2926 2924 2922 2920
3062 3060 3059 3057 3055 3054 3052 3050 3048 3046 3044 3043 3041 3039 3037 3035 3033 3031 3029 3027 3024 3022 3019 3017 3014 3012 3009 3007 3004 3002 2999 2996 2994 2991 2989 2986 2984 2981 2979 2976 2974 2971 2968 2966 2963 2961 2958 2955 2953 2951 2949 2947 2945 2943 2941 2939 2938 2936 2935 2934 2933 2931 2930 2928 2926 2924 2922 2920 2918
3060 3059 3057 3055 3053 3052 3050 3048 3046 3044 3043 3041 3039 3037 3035 3033 3031 3029 3028 3025 3023 3020 3018 3015 3013 3010 3008 3005 3003 3000 2998 2995 2992 2990 2987 2984 2982 2979 2977 2975 2972 2970 2967 2964 2962 2959 2957 2954 2952 2950 2947 2945 2944 2942 2940 2938 2937 2935 2934 2933 2932 2930 2929 2927 2925 2923 2920 2918 2916
3059 3057 3055 3054 3052 3050 3048 3046 3045 3043 3041 3039 3038 3036 3034 3032 3030 3028 3026 3024 3021 3019 3017 3014 3012 3009 3007 3004 3001 2999 2996 2994 2991 2989 2986 2983 2981 2978 2976 2974 2971 2969 2966 2964 2961 2958 2956 2954 2951 2949 2946 2944 2942 2940 2939 2937 2936 2934 2933 2932 2930 2929 2927 2925 2923 2921 2919 2916 2914
3057 3055 3053 3052 3050 3048 3047 3045 3043 3041 3039 3038 3036 3034 3032 3031 3029 3027 3025 3023 3020 3018 3015 3013 3010 3008 3005 3003 3000 2997 2995 2992 2990 2987 2984 2982 2979 2977 2974 2972 2970 2967 2965 2962 2960 2957 2955 2952 2950 2947 2945 2943 2941 2939 2938 2936 2935 2933 2932 2930 2929 2927 2925 2924 2921 2919 2917 2914 2912
3055 3053 3051 3050 3048 3047 3045 3043 3042 3040 3038 3036 3034 3033 3031 3029 3027 3025 3024 3021 3019 3016 3014 3011 3009 3006 3004 3001 2999 2996 2993 2991 2989 2986 2984 2981 2978 2976 2973 2971 2969 2966 2964 2961 2959 2956 2954 2951 2949 2946 2944 2942 2940 2938 2936 2935 2934 2932 2930 2929 2927 2925 2924 2922 2920 2917 2915 2913 2911
3053 3052 3050 3048 3047 3045 3043 3042 3040 3038 3037 3035 3033 3031 3029 3028 3026 3024 3022 3020 3018 3015 3013 3010 3008 3005 3003 3000 2997 2995 2992 2989 2987 2984 2982 2979 2977 2974 2972 2970 2967 2965 2963 2960 2958 2955 2952 2950 2948 2945 2943 2941 2939 2937 2935 2934 2932 2930 2929 2927 2926 2924 2922 2920 2918 2916 2913 2911 2909
3051 3050 3048 3047 3045 3044 3042 3040 3039 3037 3035 3034 3032 3030 3028 3026 3024 3023 3020 3019 3016 3014 3012 3009 3006 3004 3001 2999 2996 2994 2991 2988 2986 2984 2981 2979 2976 2973 2971 2969 2966 2964 2961 2959 2956 2954 2951 2949 2946 2944 2942 2940 2938 2936 2934 2932 2930 2929 2927 2926 2924 2922 2920 2918 2916 2914 2912 2910 2908
3050 3048 3047 3045 3044 3042 3040 3039 3037 3035 3034 3032 3030 3029 3027 3025 3023 3021 3019 3017 3015 3013 3010 3008 3005 3002 3000 2997 2995 2992 2990 2987 2985 2982 2980 2977 2975 2972 2970 2967 2965 2963 2960 2958 2955 2953 2950 2947 2945 2943 2941 2939 2937 2935 2933 2931 2929 2927 2925 2924 2922 2920 2918 2916 2914 2912 2910 2909 2907
3048 3047 3045 3044 3042 3040 3039 3037 3036 3034 3032 3031 3029 3027 3025 3024 3022 3020 3018 3016 3014 3011 3009 3006 3004 3001 2999 2996 2994 2991 2989 2986 2984 2981 2979 2976 2974 2971 2969 2966 2964 2962 2959 2957 2954 2952 2949 2946 2944 2941 2939 2937 2935 2934 2932 2929 2928 2926 2924 2922 2921 2919 2917 2914 2913 2911 2909 2907 2906
3046 3045 3044 3042 3040 3039 3037 3036 3034 3033 3031 3029 3028 3026 3024 3023 3021 3019 3017 3015 3013 3010 3008 3005 3003 3000 2997 2995 2993 2990 2988 2985 2983 2980 2978 2975 2973 2970 2968 2965 2963 2960 2958 2956 2954 2951 2948 2945 2943 2940 2938 2936 2934 2932 2930 2928 2926 2925 2923 2921 2919 2917 2915 2913 2912 2910 2908 2906 2905
3045 3043 3042 3040 3039 3037 3036 3034 3033 3031 3030 3028 3026 3025 3023 3021 3019 3017 3015 3013 3011 3009 3006 3004 3001 2999 2996 2994 2991 2989 2986 2984 2981 2979 2976 2974 2971 2969 2966 2964 2962 2959 2957 2955 2953 2950 2947 2945 2942 2939 2937 2935 2933 2931 2929 2927 2925 2924 2922 2920 2919 2916 2914 2912 2910 2909 2907 2905 2904
3043 3042 3040 3039 3037 3036 3034 3033 3031 3030 3028 3027 3025 3023 3022 3020 3018 3016 3014 3012 3010 3008 3005 3003 3000 2998 2995 2993 2990 2988 2985 2983 2980 2978 2975 2973 2970 2968 2965 2963 2960 2958 2956 2954 2952 2949 2947 2944 2941 2939 2936 2934 2932 2930 2928 2926 2924 2923 2921 2920 2918 2916 2913 2911 2910 2908 2906 2905 2903
3042 3040 3039 3037 3036 3034 3033 3031 3030 3029 3027 3025 3024 3022 3020 3019 3017 3015 3013 3011 3009 3006 3004 3002 2999 2997 2994 2992 2989 2987 2984 2982 2979 2977 2974 2971 2969 2967 2964 2962 2959 2957 2955 2953 2951 2948 2946 2943 2941 2938 2935 2933 2931 2929 2927 2926 2924 2922 2920 2919 2917 2914 2912 2911 2909 2907 2905 2904 2902
3040 3038 3037 3035 3034 3033 3031 3030 3029 3027 3025 3024 3022 3021 3019 3017 3015 3014 3011 3009 3007 3005 3003 3001 2998 2996 2993 2991 2988 2986 2983 2980 2978 2975 2973 2970 2968 2965 2963 2961 2959 2956 2954 2952 2950 2948 2945 2943 2940 2937 2935 2933 2930 2929 2927 2925 2923 2921 2919 2917 2914 2912 2911 2910 2908 2907 2905 2903 2901
3038 3037 3035 3034 3033 3031 3030 3028 3027 3025 3024 3023 3021 3019 3018 3016 3014 3012 3010 3008 3006 3004 3002 2999 2997 2995 2992 2990 2987 2985 2982 2979 2977 2974 2972 2969 2967 2965 2962 2960 2958 2956 2954 2951 2949 2947 2944 2942 2939 2937 2934 2932 2930 2929 2926 2924 2922 2919 2917 2914 2912 2911 2910 2909 2907 2906 2904 2902 2899
3036 3035 3034 3032 3031 3029 3028 3027 3025 3024 3023 3021 3019 3018 3016 3015 3013 3011 3009 3007 3005 3003 3000 2998 2996 2994 2991 2989 2986 2984 2981 2979 2976 2974 2971 2969 2966 2964 2962 2959 2957 2955 2953 2950 2948 2945 2943 2941 2939 2936 2934 2932 2930 2928 2925 2923 2920 2917 2915 2913 2911 2909 2909 2907 2906 2904 2903 2901 2899
3035 3034 3032 3031 3029 3028 3027 3025 3024 3023 3021 3020 3018 3017 3015 3014 3012 3010 3008 3006 3004 3002 2999 2997 2995 2993 2990 2988 2985 2983 2980 2978 2975 2973 2971 2968 2966 2963 2961 2959 2956 2954 2951 2949 2947 2944 2942 2940 2938 2936 2934 2932 2929 2927 2924 2920 2917 2915 2913 2911 2910 2909 2908 2906 2905 2904 2902 2900 2898
3033 3032 3030 3029 3028 3026 3025 3024 3023 3021 3020 3018 3017 3015 3014 3012 3010 3009 3007 3005 3003 3001 2999 2996 2994 2992 2989 2986 2984 2982 2979 2977 2975 2972 2970 2968 2965 2963 2960 2958 2955 2953 2950 2948 2946 2944 2941 2939 2937 2935 2933 2930 2927 2924 2920 2917 2914 2913 2912 2911 2910 2909 2908 2906 2905 2904 2901 2899 2897
3032 3030 3029 3028 3026 3025 3024 3022 3021 3020 3018 3017 3015 3014 3012 3011 3009 3007 3005 3004 3002 3000 2998 2995 2993 2991 2988 2985 2983 2981 2979 2977 2974 2972 2969 2967 2964 2962 2959 2957 2954 2952 2949 2947 2945 2942 2940 2938 2935 2933 2931 2928 2925 2921 2918 2916 2915 2915 2914 2913 2912 2910 2909 2907 2905 2903 2901 2899 2896
3030 3029 3027 3026 3024 3023 3022 3021 3019 3018 3017 3015 3014 3013 3011 3009 3008 3006 3004 3003 3001 2999 2997 2994 2992 2990 2987 2985 2982 2980 2978 2976 2974 2971 2969 2966 2964 2961 2959 2956 2954 2951 2949 2946 2944 2942 2939 2937 2934 2932 2929 2927 2924 2920 2918 2918 2919 2918 2917 2915 2913 2911 2909 2906 2904 2902 2899 2897 2895
3028 3027 3026 3024 3023 3022 3020 3019 3018 3017 3015 3014 3013 3011 3010 3008 3007 3005 3003 3002 3000 2998 2996 2994 2991 2989 2986 2984 2982 2979 2977 2975 2973 2970 2968 2965 2963 2960 2958 2955 2953 2950 2948 2946 2944 2941 2939 2937 2934 2932 2929 2926 2923 2920 2919 2919 2919 2919 2917 2914 2912 2909 2906 2903 2901 2899 2898 2896 2894
3027 3025 3024 3023 3021 3020 3019 3018 3016 3015 3014 3013 3011 3010 3008 3007 3005 3004 3002 3000 2999 2997 2995 2993 2990 2988 2986 2984 2981 2979 2977 2974 2972 2969 2967 2965 2962 2960 2957 2954 2952 2949 2947 2945 2943 2941 2939 2937 2934 2932 2929 2925 2923 2921 2920 2920 2919 2918 2915 2913 2910 2907 2904 2901 2899 2897 2896 2894 2893
3025 3024 3022 3021 3019 3018 3017 3016 3015 3014 3012 3011 3009 3008 3007 3005 3004 3003 3001 2999 2998 2996 2994 2992 2989 2987 2985 2983 2981 2979 2976 2974 2971 2969 2966 2964 2961 2959 2956 2954 2951 2949 2947 2944 2942 2940 2938 2936 2934 2932 2929 2926 2924 2923 2922 2921 2919 2917 2914 2912 2909 2905 2902 2900 2898 2896 2894 2893 2891
3023 3022 3020 3019 3018 3017 3015 3014 3013 3012 3011 3009 3008 3007 3005 3004 3003 3001 2999 2998 2996 2994 2993 2990 2988 2986 2984 2982 2980 2978 2975 2973 2970 2968 2966 2963 2961 2958 2955 2953 2951 2948 2946 2944 2942 2940 2938 2936 2934 2931 2929 2926 2924 2924 2923 2921 2919 2916 2913 2910 2907 2904 2901 2899 2896 2894 2893 2891 2889
3021 3020 3019 3018 3016 3015 3014 3013 3011 3010 3009 3008 3007 3005 3004 3003 3001 3000 2998 2996 2995 2993 2991 2989 2988 2985 2983 2981 2979 2977 2974 2972 2970 2967 2965 2963 2960 2958 2955 2952 2950 2948 2945 2944 2941 2939 2937 2935 2933 2930 2928 2926 2925 2924 2924 2920 2918 2915 2912 2909 2906 2903 2900 2898 2895 2893 2891 2890 2888
3019 3018 3017 3016 3014 3013 3012 3011 3010 3009 3007 3006 3005 3004 3002 3001 2999 2998 2997 2995 2994 2992 2990 2989 2986 2984 2982 2980 2978 2976 2974 2971 2969 2967 2964 2962 2959 2957 2954 2952 2949 2947 2945 2943 2941 2939 2937 2935 2933 2930 2928 2925 2926 2924 2922 2919 2916 2914 2911 2908 2905 2902 2899 2897 2894 2892 2891 2889 2887
3017 3016 3015 3014 3013 3012 3010 3009 3008 3007 3006 3004 3003 3002 3001 2999 2998 2997 2995 2994 2992 2991 2989 2987 2985 2983 2981 2979 2977 2975 2973 2970 2968 2966 2964 2961 2959 2956 2954 2951 2949 2946 2944 2942 2940 2938 2936 2934 2933 2930 2928 2926 2925 2923 2920 2918 2916 2913 2910 2907 2904 2901 2899 2896 2894 2892 2890 2889 2887
3015 3014 3013 3012 3011 3010 3009 3007 3006 3005 3004 3003 3002 3000 2999 2998 2997 2995 2994 2993 2991 2989 2988 2986 2984 2982 2980 2978 2976 2974 2972 2970 2968 2965 2963 2961 2959 2956 2953 2951 2948 2946 2944 2942 2939 2938 2936 2934 2932 2929 2928 2927 2924 2922 2919 2917 2915 2912 2909 2907 2904 2901 2899 2896 2894 2892 2890 2889 2887
3013 3012 3011 3010 3009 3008 3007 3006 3004 3003 3002 3001 3000 2999 2998 2997 2995 2994 2993 2991 2989 2988 2986 2985 2983 2981 2979 2977 2975 2973 2971 2969 2967 2965 2963 2960 2958 2955 2953 2950 2948 2945 2943 2941 2939 2937 2935 2934 2932 2929 2928 2926 2924 2921 2919 2916 2914 2912 2909 2906 2903 2901 2899 2896 2894 2892 2891 2889 2887
3011 3010 3009 3009 3007 3006 3005 3004 3003 3002 3000 2999 2998 2997 2996 2995 2994 2993 2991 2990 2989 2987 2985 2983 2982 2980 2978 2976 2974 2972 2970 2968 2966 2964 2962 2959 2957 2955 2952 2949 2947 2945 2943 2940 2938 2936 2935 2934 2931 2929 2928 2926 2923 2920 2918 2916 2914 2911 2909 2906 2903 2900 2898 2896 2894 2893 2891 2889 2887
3009 3009 3008 3007 3005 3004 3003 3002 3001 3000 2999 2998 2997 2995 2994 2993 2992 2991 2990 2989 2987 2986 2984 2982 2980 2979 2977 2975 2973 2971 2969 2967 2965 2963 2961 2959 2956 2954 2952 2949 2947 2944 2942 2940 2938 2936 2934 2933 2931 2929 2927 2926 2922 2920 2918 2915 2913 2911 2908 2905 2903 2900 2898 2896 2894 2892 2890 2889 2886
3007 3006 3005 3004 3004 3003 3001 3000 2999 2998 2997 2996 2995 2994 2993 2992 2991 2990 2989 2988 2986 2984 2983 2981 2979 2978 2976 2974 2972 2970 2968 2966 2964 2962 2960 2958 2955 2953 2951 2949 2946 2944 2942 2940 2938 2935 2934 2932 2930 2929 2927 2925 2922 2919 2917 2915 2913 2910 2908 2905 2902 2900 2898 2896 2894 2892 2890 2888 2886
3005 3004 3004 3003 3001 3000 2999 2999 2997 2996 2995 2994 2993 2992 2991 2990 2989 2988 2987 2986 2985 2983 2981 2980 2978 2977 2975 2973 2971 2969 2967 2965 2963 2961 2959 2957 2954 2952 2950 2948 2946 2944 2942 2939 2937 2935 2933 2932 2929 2929 2928 2924 2921 2919 2916 2914 2912 2909 2907 2905 2903 2900 2898 2896 2894 2892 2890 2888 2886
3003 3002 3001 3000 2999 2999 2998 2996 2995 2994 2994 2993 2992 2991 2990 2989 2988 2987 2986 2985 2984 2982 2980 2979 2977 2976 2974 2972 2970 2968 2966 2964 2962 2960 2958 2956 2954 2952 2950 2948 2945 2943 2941 2939 2937 2935 2933 2931 2929 2928 2928 2924 2921 2918 2916 2914 2911 2909 2907 2904 2903 2901 2899 2896 2894 2892 2890 2889 2887
3001 3000 2999 2998 2997 2996 2995 2994 2994 2993 2992 2991 2990 2989 2988 2987 2986 2985 2984 2983 2982 2981 2979 2978 2976 2975 2973 2971 2969 2967 2965 2963 2961 2959 2957 2955 2953 2951 2949 2947 2945 2943 2941 2939 2937 2935 2933 2931 2929 2928 2927 2924 2920 2918 2916 2913 2911 2909 2906 2904 2903 2901 2899 2897 2895 2893 2891 2889 2887
2999 2998 2997 2996 2995 2994 2993 2992 2992 2991 2990 2989 2989 2988 2987 2986 2985 2984 2983 2982 2981 2979 2978 2977 2975 2974 2972 2970 2968 2966 2964 2962 2960 2958 2956 2954 2952 2950 2948 2946 2944 2943 2941 2939 2937 2934 2933 2930 2928 2927 2926 2924 2920 2918 2915 2913 2910 2908 2906 2904 2903 2901 2899 2897 2895 2893 2891 2889 2887